星链-34548 (STARLINK-34548)

导读

STARLINK-34548是美国太空探索技术公司(SpaceX)星链星座的一员,于2025年6月28日发射升空。星链项目旨在构建全球卫星互联网星座,为全球偏远地区、海洋空域等提供高速低延迟互联网接入服务,STARLINK-34548将助力星链进一步扩大小卫星组网覆盖范围,提升星座服务容量与稳定性。

基本信息
目录编号:
64716
目录名称:
STARLINK-34548
国际标识:
2025-142W
轨道中心:
EARTH
卫星名称:
星链-34548
卫星全名:
星链-34548 (STARLINK-34548)
卫星状态:
在轨 (已飞行433 天)
发射日期:
2025-06-28 UTC
国别 :
美国 (US)
星等 :
--
轨道信息
数据来源 国际轨道数据
星历时间: 2026-09-04T14:00:02+0800
9小时前
查看轨道信息
半长轴: 6893.742km
偏心率: 0.000318
轨道倾角: 70.000°
近地点辐角 272.462°
升交点赤经 223.952°
平近点角 122.008°
近地点: 513.412km
远地点: 517.798km
周期: 94.938分钟
每日圈数: 15.167718
详细信息
固有亮度:
5
最大亮度:
2.5
卫星平台:
Starlink V1.0
覆盖范围:
全球
运营商:
太空探索技术公司
运营商所在国:
美国
制造商(研发单位):
太空探索技术公司
制造商所在国:
美国
使用方式:
暂无
卫星简介
Starlink 计划是 SpaceX 推出的全球卫星互联网项目,通过发射低轨道卫星,为全球尤其是偏远地区提供高速、低延迟的互联网服务。自 2019 年起,Starlink 已部署数千颗卫星,旨在缩小全球数字鸿沟,推动互联网普及。该项目还为军事、航空等行业提供通信支持,带来广泛经济效益。
2D轨道图
3D轨道图
轨道高度分析图
轨道倾角分析图
轨道综合分析图
查看轨道综合分析图